Location: Clanezzo
(45.7500°N, 9.6000°E)
Time: 23:04:02
(UTC+00:00)

STARS - Pass Details

Date: 08 July 2022
Orbit: 620 x 637 km, 98.2° (Epoch: 16 August)

Event Time Altitude Azimuth Distance (km) Brightness Sun altitude
Rises 23:20:22 0° 359° (N) 2,927 ? -21.8°
Reaches altitude 10° 23:23:04 10° 343° (NNW) 2,011 ? -21.9°
Maximum altitude 23:26:10 19° 297° (WNW) 1,477 ? -21.9°
Enters shadow 23:28:36 13° 259° (WSW) 1,811 ? -21.9°
